Hourly Data Report for September 26, 2017

All times are specified in Local Standard Time (LST). Add 1 hour to adjust for Daylight Saving Time where and when it is observed.

BUCTOUCHE CDA CS
NEW BRUNSWICK

46°25'49.006" N
64°46'05.009" W
35.90 m
8100593
71666
ABT

Download Data

Hourly Data (September 2017)
Hourly Data Report for September 26, 2017
Temp Definition
°C
Dew Point Temp Definition
°C
Rel Hum Definition
%
Wind Dir Definition
10's deg

Wind Spd Definition
km/h
Visibility Definition
km
Stn Press Definition
kPa
Hmdx Definition


Wind Chill Definition


Weather Definition


TIME
00:00 20.8 16.6 77 22 19   100.84 26   LegendNANA
01:00 20.5 16.6 78 23 17   100.85 26   LegendNANA
02:00 20.1 16.7 81 22 18   100.81 25   LegendNANA
03:00 19.8 16.8 83 23 14   100.79     LegendNANA
04:00 19.6 16.8 84 22 19   100.75     LegendNANA
05:00 19.5 17.0 85 22 19   100.77     LegendNANA
06:00 19.4 16.9 86 23 18   100.79     LegendNANA
07:00 19.4 17.0 86 23 17   100.82     LegendNANA
08:00 20.0 17.4 85 23 16   100.80 26   LegendNANA
09:00 21.9 18.2 79 23 18   100.79 28   LegendNANA
10:00 24.5 18.7 70 23 14   100.78 31   LegendNANA
11:00 27.8 19.1 59 25 12   100.76 35   LegendNANA
12:00 29.1 18.4 52 26 13   100.74 35   LegendNANA
13:00 30.1 18.8 51 24 15   100.69 37   LegendNANA
14:00 30.5 16.7 44 29 16   100.67 36   LegendNANA
15:00 25.2 17.1 61 3 18   100.77 31   LegendNANA
16:00 19.8 14.0 69 4 17   100.92     LegendNANA
17:00 17.6 12.4 72 3 17   101.08     LegendNANA
18:00 15.8 12.0 78 4 10   101.13     LegendNANA
19:00 15.2 11.9 80 5 14   101.22     LegendNANA
20:00 15.2 12.7 85 4 13   101.29     LegendNANA
21:00 15.4 12.4 82 5 15   101.30     LegendNANA
22:00 14.7 11.4 80 6 16   101.33     LegendNANA
23:00 14.5 10.6 77 6 16   101.33     LegendNANA

Notes on Data Quality.

Legend

  • E = Estimated
  • M = Missing
  • NA = Not Available
  • ‡ = Partner data that is not subject to review by the National Climate Archives
Date modified: